UTTI current weather conditions

sailwx.info

Wind from 310 at 3 knots

Air temperature 14.0° C
Dewpoint 11.0° C

Last reported at 2015-Aug-31 05:50 UTC.
Time now 2015-Aug-31 06:51 UTC

Location: N 60°54' E 026°56'.
View on Google Maps.

See reports from other nearby stations

  
Tides and Currents Weather Stations Pressure Air Temp Water Temp Dewpoint Dewpoint Depression Visibility Wind Speed Wind Dir Waves Ship Positions
date/time (UTC)wind fromknots sea level pressurealtimeterstation pressurevisibilityair tempwater tempwave heightnotes
2015-Aug-31 05:50 310 3 14.0
2015-Aug-31 05:20 310 4 13.0
2015-Aug-31 04:50 310 5 12.0
2015-Aug-31 04:20 310 5 5.411.0
2015-Aug-31 03:50 320 5 11.0
2015-Aug-31 03:20 310 6 10.0
2015-Aug-31 02:50 310 5 10.0
2015-Aug-31 02:20 300 5 10.0
2015-Aug-31 01:50 310 5 10.0
2015-Aug-31 01:20 310 5 11.0
2015-Aug-31 00:50 310 6 11.0
2015-Aug-31 00:20 310 5 11.0
2015-Aug-30 23:50 310 5 11.0
2015-Aug-30 23:20 300 5 11.0
2015-Aug-30 22:50 300 5 11.0
2015-Aug-30 22:20 290 4 11.0
2015-Aug-30 21:50 290 5 11.0
2015-Aug-30 21:20 290 5 12.0
2015-Aug-30 20:50 280 5 12.0
2015-Aug-30 20:20 280 4 12.0
2015-Aug-30 19:50 290 4 12.0
2015-Aug-30 19:20 290 4 12.0
2015-Aug-30 18:50 320 4 13.0
2015-Aug-30 18:20 300 4 13.0
2015-Aug-30 17:50 320 3 13.0
2015-Aug-30 17:20 320 5 13.0
2015-Aug-30 16:50 300 6 14.0
2015-Aug-30 16:20 310 5 14.0
2015-Aug-30 15:50 290 6 14.0
2015-Aug-30 15:20 220 8 5.414.0 Light rain.
2015-Aug-30 14:50 250 10 14.0
2015-Aug-30 14:20 230 14 14.0
2015-Aug-30 13:50 220 10 16.0
2015-Aug-30 13:20 240 3 5.419.0
2015-Aug-30 12:50 240 5 18.0
2015-Aug-30 12:20 220 5 5.419.0
2015-Aug-30 11:50 190 4 19.0
2015-Aug-30 11:20 190 6 16.0
2015-Aug-30 10:50 270 4 5.418.0
2015-Aug-30 10:20 300 6 5.418.0
2015-Aug-30 09:50 300 6 19.0
2015-Aug-30 09:20 300 6 18.0
2015-Aug-30 08:50 270 8 18.0
2015-Aug-30 08:20 280 6 5.418.0
2015-Aug-30 07:50 270 5 5.417.0
2015-Aug-30 07:20 280 5 16.0
2015-Aug-30 06:50 270 5 15.0
2015-Aug-30 06:20 260 6 15.0
2015-Aug-30 05:50 260 5 14.0
2015-Aug-30 05:20 260 4 13.0
2015-Aug-30 04:50 250 4 12.0
2015-Aug-30 04:20 270 4 12.0
2015-Aug-30 03:50 260 4 11.0
2015-Aug-30 03:20 280 3 11.0
2015-Aug-30 02:50 270 3 11.0
2015-Aug-30 02:20 270 3 11.0
2015-Aug-30 01:50 270 4 11.0
2015-Aug-30 01:20 270 3 11.0
2015-Aug-30 00:50 280 3 11.0
2015-Aug-30 00:20 270 5 12.0
2015-Aug-29 23:50 280 4 12.0
2015-Aug-29 23:20 270 5 12.0
2015-Aug-29 22:50 270 6 13.0
2015-Aug-29 22:20 270 5 13.0
2015-Aug-29 21:50 270 4 13.0
2015-Aug-29 21:20 260 2 13.0
2015-Aug-29 20:50 260 4 13.0
2015-Aug-29 20:20 260 5 14.0
2015-Aug-29 19:50 270 5 14.0
2015-Aug-29 19:20 270 6 14.0
2015-Aug-29 18:50 260 7 15.0
2015-Aug-29 18:20 260 7 15.0
2015-Aug-29 17:50 250 7 16.0
2015-Aug-29 17:20 240 5 17.0
2015-Aug-29 16:50 250 7 18.0
2015-Aug-29 16:20 250 7 18.0
2015-Aug-29 15:50 250 7 18.0
2015-Aug-29 15:20 250 9 19.0
2015-Aug-29 14:50 260 7 19.0
2015-Aug-29 14:20 270 8 19.0
2015-Aug-29 13:50 260 5 17.0
2015-Aug-29 13:20 300 9 5.418.0 Light rain showers.
2015-Aug-29 12:50 270 9 20.0
2015-Aug-29 12:20 290 10 19.0
2015-Aug-29 11:50 300 10 5.418.0
2015-Aug-29 11:20 300 10 5.419.0
2015-Aug-29 10:50 280 10 5.418.0
2015-Aug-29 10:20 270 12 5.418.0
2015-Aug-29 09:50 270 10 5.418.0
2015-Aug-29 09:20 260 12 5.418.0
2015-Aug-29 08:50 270 10 17.0
2015-Aug-29 08:20 250 11 5.417.0
2015-Aug-29 07:50 270 9 17.0
2015-Aug-29 07:20 280 9 16.0
2015-Aug-29 06:50 280 9 15.0
2015-Aug-29 06:20 260 8 14.0